Location: Rochester
(43.1610°N, 77.6109°W)
Time: 10:11:51
(UTC-05:00)

CUTE 1.7 + AOD 2 - Pass Details

Date: 18 October 2021
Orbit: 592 x 611 km, 97.6° (Epoch: 05 December)

Event Time Altitude Azimuth Distance (km) Brightness Sun altitude
Rises 04:23:48 0° 28° (NNE) 2,883 ? -33.9°
Reaches altitude 10° 04:26:34 10° 47° (NE) 1,974 ? -33.4°
Maximum altitude 04:29:37 19° 92° (E) 1,476 ? -32.9°
Enters shadow 04:31:34 14° 125° (SE) 1,694 ? -32.6°
